Location: *
(44.1392°N, 4.8079°E)
Time: 11:14:51
(UTC+00:00)

deb Meteor - Visible Passes

Search period start: 17 August 2022 00:00
Search period end: 27 August 2022 00:00
Orbit: 833 x 899 km, 81.3° (Epoch: 17 August)

Date Brightness Start Highest point End Pass type
(mag) Time Alt. Az. Time Alt. Az. Time Alt. Az.
17 Aug ? 20:17:33 10° NNW 20:22:34 32° W 20:27:29 10° SSW visible
18 Aug ? 20:10:09 10° NNW 20:15:09 32° W 20:20:03 10° SSW visible
19 Aug ? 20:02:45 10° NNW 20:07:44 31° W 20:12:37 10° SSW visible
20 Aug ? 19:55:21 10° NNW 20:00:18 31° W 20:05:10 10° SSW visible
21 Aug ? 19:47:57 10° NNW 19:52:53 31° W 19:57:44 10° SSW visible
22 Aug ? 19:40:33 10° NNW 19:45:28 31° W 19:50:18 10° SSW visible
23 Aug ? 19:33:09 10° NNW 19:38:03 30° W 19:42:52 10° SSW visible
24 Aug ? 19:25:46 10° NNW 19:30:38 30° W 19:35:25 10° SSW visible
25 Aug ? 19:18:22 10° NNW 19:23:13 30° W 19:27:59 10° SSW visible
26 Aug ? 19:10:58 10° NNW 19:15:48 30° W 19:20:33 10° SSW visible
